Regional Weather Roundup
Issued by NWS Green Bay, WI

Home | Current Version | Previous Version | Text Only | Print | Product List | Glossary On
Versions: 1 2 3 4 5 6 7 8 9 10 11 12 13 14 15 16 17 18 19 20 21 22 23 24 25 26 27 28 29 30 31 32 33 34 35 36 37 38 39 40 41 42 43 44 45 46 47 48 49 50
406
ASUS43 KGRB 231011
RWRGRB

NORTH-CENTRAL AND NORTHEAST WISCONSIN REGIONAL WEATHER ROUNDUP
NATIONAL WEATHER SERVICE GREEN BAY WI
500 AM CDT TUE MAY 23 2017

WIZ005-009-010>012-018-019-231100-
NORTH CENTRAL WISCONSIN

CITY           SKY/WX    TMP DP  RH WIND       PRES   REMARKS
IRONWOOD       MOCLDY    43  43 100 CALM      29.82S
MANITOWISH WTR CLOUDY    38  38 100 CALM      29.81S
ARBOR VITAE    CLOUDY    42  40  95 CALM      29.80S
EAGLE RIVER    CLOUDY    42  42 100 CALM      29.80F
LAND O LAKES   CLOUDY    41  41 100 CALM      29.83S
RHINELANDER    CLOUDY    46  43  89 CALM      29.80F
PHILLIPS       CLOUDY    42  42 100 CALM      29.80S
ANTIGO         LGT RAIN  47  44  91 SE3       29.81R
TOMAHAWK       LGT RAIN  42  41  97 CALM      29.81R
MERRILL        LGT RAIN  46  46 100 E3        29.80S
$$

WIZ013-073-231100-
NORTHEAST WISCONSIN

CITY           SKY/WX    TMP DP  RH WIND       PRES   REMARKS
IRON MOUNTAIN  CLOUDY    39  36  89 NW3       29.80F
MARINETTE      PTCLDY    43  42  97 CALM      29.81S
OCONTO         CLOUDY    45  44  98 CALM      29.80S
$$

WIZ017-030-035>037-045-231100-
CENTRAL WISCONSIN

CITY           SKY/WX    TMP DP  RH WIND       PRES   REMARKS
MEDFORD        CLOUDY    46  44  90 N5        29.78S
WAUSAU         LGT RAIN  48  46  93 E8        29.76F
MOSINEE        CLOUDY    46  46 100 E8        29.78S
MARSHFIELD     CLOUDY    48  46  93 E8        29.76R
WISC RAPIDS    CLOUDY    50  47  89 E8        29.77R
STEVENS POINT  CLOUDY    46  46  99 E8        29.77F
WAUPACA        CLOUDY    52  47  84 NE6       29.77S
SHAWANO        RAIN      51  47  88 NW3       29.81R
CLINTONVILLE   CLOUDY    48  46  93 NE5       29.79F
WAUTOMA        MOCLDY    50  49  96 NE3       29.77R
$$

WIZ038-039-048-051-231100-
FOX VALLEY

CITY           SKY/WX    TMP DP  RH WIND       PRES   REMARKS
NWS GREEN BAY  CLOUDY    53  45  74 E9        29.78S
APPLETON       CLOUDY    52  41  66 E6        29.76R
OSHKOSH        CLOUDY    55  52  89 CALM      29.76R
FOND DU LAC    CLOUDY    56  52  86 S6        29.76R
$$

WIZ022-050-052-231100-
EAST CENTRAL WISCONSIN

CITY           SKY/WX    TMP DP  RH WIND       PRES   REMARKS
EPHRAIM        FAIR      46  44  95 E3        29.80R
WASHINGTON ISL FAIR      34  33  99 CALM      29.81S FOG
STURGEON BAY   CLOUDY    48  44  86 E7        29.80F
MANITOWOC      CLOUDY    50  45  83 E8        29.79F
SHEBOYGAN      MOCLDY    51  49  92 E5        29.77F
$$

LMZ563-521-522-541>543-231100-
LAKESHORE

STATION/POSITION TIME  TEMP    WIND        PRES    VSBY  WAVE
                       AIR SEA DIR/SP/G                  HT/PER
                 (UTC) (F)     (DEG/KT/KT) (MB)    (MI)  (FT/S)
SHEBOYGAN LKSHOR 1000   47      20/  5/  6 1008.1F
KEWAUNEE LKSHORE 0948   47      40/  3/  4 1008.7F
ALGOMA MARINA    0945           70/  5/  9   N/A
NORTHPORT PIER   0940   42     310/  3/  3 1009.5S
N MID LAKE BUOY  0950   42 38   30/  4/  4 1010.6F         2/ 5
CHAMBERS ISLAND  0940   44        CALM     1009.1S
MENOMINEE LKSHOR 0948           40/  5/  5 1008.5S
$$




USA.gov is the U.S. government's official web portal to all federal, state and local government web resources and services.